PD1VW-10 Weather Reports


Display with metric or nautical units.
time (UTC)temp
F
wind
direction
speed
MPH
gust
MPH
rain 1hr
in
rain 24hr
in
rain mn
in
humidity
%
barometer
mb
20260507234019 52 266 1.0 2.0 0.00 0.00 0.00 79 1019.5
20260507233016 52 266 3.0 6.0 0.00 0.00 0.00 79 1019.4
20260507232104 50 266 1.0 1.0 0.00 0.00 0.00 85 1019.6
20260507231041 48 266 1.0 3.0 0.00 0.00 0.00 91 1019.4
20260507230038 48 266 2.0 2.0 0.00 0.00 0.00 92 1019.6
20260507225115 48 266 2.0 3.0 0.00 0.00 0.00 92 1019.4
20260507224053 48 266 2.0 2.0 0.00 0.00 0.00 92 1019.4
20260507223030 48 266 1.0 2.0 0.00 0.00 0.00 91 1019.2
20260507222027 47 266 1.0 2.0 0.00 0.00 0.00 91 1019.3
20260507221024 47 266 2.0 2.0 0.00 0.00 0.00 91 1019.4
20260507220021 48 266 2.0 3.0 0.00 0.00 0.00 90 1019.4
20260507215018 48 266 2.0 3.0 0.00 0.00 0.00 89 1019.5
20260507214015 48 266 2.0 2.0 0.00 0.00 0.00 88 1019.4
20260507213043 49 266 2.0 3.0 0.00 0.00 0.00 88 1019.3
20260507212040 49 266 3.0 4.0 0.00 0.00 0.00 87 1019.4
20260507211037 50 266 2.0 3.0 0.00 0.00 0.00 86 1019.4
20260507210054 50 266 3.0 4.0 0.00 0.00 0.00 86 1019.3
20260507205031 50 266 3.0 4.0 0.00 0.00 0.00 87 1019.3
20260507204029 50 266 3.0 3.0 0.00 0.00 0.00 86 1019.2
20260507203026 50 266 3.0 3.0 0.00 0.00 0.00 85 1019.2
20260507202023 51 266 3.0 4.0 0.00 0.00 0.00 84 1019.2
20260507201020 51 266 2.0 3.0 0.00 0.00 0.00 82 1019.2
20260507200017 51 266 3.0 4.0 0.00 0.00 0.00 81 1019.0
20260507195044 51 266 3.0 4.0 0.00 0.00 0.00 79 1018.9
20260507194041 51 266 3.0 3.0 0.00 0.00 0.00 78 1018.8
20260507193039 51 266 2.0 2.0 0.00 0.00 0.00 76 1018.8
20260507192116 52 266 3.0 4.0 0.00 0.00 0.00 75 1018.6
20260507191033 52 267 4.0 7.0 0.00 0.00 0.00 73 1018.7
20260507190050 53 272 4.0 4.0 0.00 0.00 0.00 72 1018.7
20260507185027 55 291 5.0 8.0 0.00 0.00 0.00 71 1018.4
20260507184024 55 21 4.0 6.0 0.00 0.00 0.00 69 1018.5
20260507183022 56 59 7.0 10.0 0.00 0.00 0.00 67 1018.3
20260507182019 57 47 6.0 8.0 0.00 0.00 0.00 67 1018.4
20260507181036 57 20 10.0 11.0 0.00 0.00 0.00 64 1018.7
20260507180104 57 47 5.0 7.0 0.00 0.00 0.00 65 1018.5
20260507175101 57 41 7.0 10.0 0.00 0.00 0.00 64 1018.6
20260507174038 58 46 6.0 7.0 0.00 0.00 0.00 62 1018.5
20260507173035 58 20 10.0 11.0 0.00 0.00 0.00 59 1018.3
20260507172052 59 47 11.0 14.0 0.00 0.00 0.00 59 1018.3
20260507171029 59 49 8.0 10.0 0.00 0.00 0.00 59 1018.3
20260507170026 59 47 7.0 10.0 0.00 0.00 0.00 59 1018.3
20260507165024 59 31 8.0 10.0 0.00 0.00 0.00 58 1018.2
20260507164021 59 26 12.0 15.0 0.00 0.00 0.00 58 1018.3
20260507163018 59 39 10.0 13.0 0.00 0.00 0.00 57 1018.2
20260507162016 60 41 9.0 11.0 0.00 0.00 0.00 58 1018.3
20260507161123 60 40 12.0 15.0 0.00 0.00 0.00 56 1018.0
20260507160040 60 55 9.0 14.0 0.00 0.00 0.00 56 1018.0
20260507155037 60 38 8.0 11.0 0.00 0.00 0.00 58 1018.0
20260507154035 61 38 8.0 11.0 0.00 0.00 0.00 57 1018.2
20260507153032 60 14 10.0 13.0 0.00 0.00 0.00 57 1018.0
20260507152029 60 72 10.0 15.0 0.00 0.00 0.00 55 1017.9
20260507151027 60 51 11.0 14.0 0.00 0.00 0.00 58 1017.9
20260507150023 60 39 8.0 10.0 0.00 0.00 0.00 56 1018.0
20260507145021 60 43 8.0 11.0 0.00 0.00 0.00 53 1018.1
20260507144018 60 51 7.0 9.0 0.00 0.00 0.00 56 1018.1
20260507143015 61 82 6.0 9.0 0.00 0.00 0.00 56 1017.9
20260507142043 61 36 10.0 13.0 0.00 0.00 0.00 55 1018.0
20260507141040 61 49 6.0 8.0 0.00 0.00 0.00 53 1018.1
20260507140057 61 7 6.0 9.0 0.00 0.00 0.00 53 1018.2
20260507135034 61 44 5.0 7.0 0.00 0.00 0.00 49 1018.2
20260507134032 60 73 5.0 7.0 0.00 0.00 0.00 51 1018.2
20260507133029 61 20 8.0 10.0 0.00 0.00 0.00 53 1018.0
20260507132026 60 82 4.0 6.0 0.00 0.00 0.00 54 1018.2
20260507131104 59 46 8.0 9.0 0.00 0.00 0.00 56 1018.0
20260507130020 61 55 4.0 7.0 0.00 0.00 0.00 56 1018.1
20260507125018 62 56 6.0 10.0 0.00 0.00 0.00 51 1018.2
20260507124015 60 54 4.0 6.0 0.00 0.00 0.00 54 1018.2
20260507123102 60 64 5.0 9.0 0.00 0.00 0.00 51 1018.1
20260507122039 61 80 3.0 6.0 0.00 0.00 0.00 56 1018.1
20260507121036 59 85 4.0 6.0 0.00 0.00 0.00 56 1018.3
20260507120034 59 112 6.0 8.0 0.00 0.00 0.00 57 1018.1
20260507115031 59 68 4.0 6.0 0.00 0.00 0.00 56 1018.1
20260507114028 59 26 5.0 8.0 0.00 0.00 0.00 58 1018.3
20260507113025 60 55 3.0 6.0 0.00 0.00 0.00 60 1018.0
20260507112022 58 39 2.0 3.0 0.00 0.00 0.00 55 1018.2
20260507111019 59 86 4.0 7.0 0.00 0.00 0.00 59 1018.2
20260507110017 59 75 5.0 7.0 0.00 0.00 0.00 62 1018.3
20260507105044 58 46 5.0 8.0 0.00 0.00 0.00 61 1018.3
20260507104101 58 56 5.0 8.0 0.00 0.00 0.00 58 1018.4
20260507103038 57 39 5.0 8.0 0.00 0.00 0.00 61 1018.2
20260507102115 57 32 5.0 7.0 0.00 0.00 0.00 62 1018.4
20260507101032 57 21 5.0 8.0 0.00 0.00 0.00 57 1018.4
20260507100030 58 40 6.0 8.0 0.00 0.00 0.00 58 1018.5
20260507095027 57 43 6.0 8.0 0.00 0.00 0.00 58 1018.0
20260507094024 57 60 1.0 2.0 0.00 0.00 0.00 57 1018.2
20260507093042 57 47 2.0 4.0 0.00 0.00 0.00 60 1018.1
20260507092018 56 63 4.0 8.0 0.00 0.00 0.00 62 1018.1
20260507091036 55 20 8.0 11.0 0.00 0.00 0.00 62 1018.0
20260507090043 55 44 2.0 6.0 0.00 0.00 0.00 63 1018.0
20260507085040 55 61 4.0 6.0 0.00 0.00 0.00 61 1018.1
20260507084037 56 38 5.0 8.0 0.00 0.00 0.00 59 1018.0
20260507083034 55 58 5.0 8.0 0.00 0.00 0.00 59 1018.1
20260507082032 55 54 6.0 8.0 0.00 0.00 0.00 56 1017.9
20260507081049 55 57 5.0 7.0 0.00 0.00 0.00 59 1018.0
20260507080046 54 4 5.0 8.0 0.00 0.00 0.00 63 1018.1
20260507075023 54 37 5.0 7.0 0.00 0.00 0.00 62 1018.0
20260507074040 54 44 2.0 6.0 0.00 0.00 0.00 64 1018.0
20260507073018 53 36 2.0 4.0 0.00 0.00 0.00 63 1018.1
20260507072045 53 26 5.0 7.0 0.00 0.00 0.00 69 1018.0
20260507071042 52 17 1.0 3.0 0.00 0.00 0.00 75 1018.0
20260507070059 51 51 1.0 3.0 0.00 0.00 0.00 80 1018.0
20260507065036 51 41 4.0 6.0 0.00 0.00 0.00 83 1018.0
20260507064033 49 355 5.0 6.0 0.00 0.00 0.00 84 1017.9
20260507063030 49 4 5.0 6.0 0.00 0.00 0.00 85 1018.1
20260507062028 48 31 4.0 4.0 0.00 0.00 0.00 87 1017.9
20260507061025 47 357 4.0 4.0 0.00 0.00 0.00 89 1017.9
20260507060022 46 332 5.0 6.0 0.00 0.00 0.00 90 1017.9
20260507055019 45 266 2.0 3.0 0.00 0.00 0.00 92 1017.7
20260507054016 44 0.0 0.0 0.00 0.00 0.00 93 1017.6
20260507053043 44 0.0 0.0 0.00 0.00 0.00 94 1017.6
20260507052040 43 0.0 0.0 0.00 0.00 0.00 95 1017.5
20260507051038 42 0.0 0.0 0.00 0.00 0.00 95 1017.5
20260507050035 42 0.0 0.0 0.00 0.00 0.00 95 1017.3
20260507045032 41 0.0 0.0 0.00 0.00 0.00 95 1017.2
20260507044050 41 0.0 0.0 0.00 0.00 0.00 96 1016.9
20260507043027 41 0.0 0.0 0.00 0.00 0.00 96 1017.0
20260507042024 41 0.0 0.0 0.00 0.00 0.00 96 1017.0
20260507041021 40 0.0 0.0 0.00 0.00 0.00 96 1017.0
20260507040019 41 0.0 0.0 0.00 0.00 0.00 96 1016.9
20260507035016 41 0.0 0.0 0.00 0.00 0.00 96 1016.9
20260507034103 40 0.0 0.0 0.00 0.00 0.00 96 1016.7
20260507033040 40 0.0 0.0 0.00 0.00 0.00 96 1016.8
20260507032057 40 0.0 0.0 0.00 0.00 0.00 95 1016.6
20260507031115 40 0.0 0.0 0.00 0.00 0.00 95 1016.5
20260507030032 40 0.0 0.0 0.00 0.00 0.00 95 1016.5
20260507025029 40 0.0 0.0 0.00 0.00 0.00 95 1016.3
20260507024026 41 0.0 0.0 0.00 0.00 0.00 95 1016.3
20260507023023 41 0.0 0.0 0.00 0.00 0.00 95 1016.5
20260507022021 41 0.0 0.0 0.00 0.00 0.00 95 1016.4
20260507021018 41 0.0 0.0 0.00 0.00 0.00 95 1016.3
20260507020015 40 0.0 0.0 0.00 0.00 0.00 94 1016.0
20260507015102 40 0.0 0.0 0.00 0.00 0.00 94 1016.1
20260507014040 40 0.0 0.0 0.00 0.00 0.00 94 1015.9
20260507013037 40 0.0 0.0 0.00 0.00 0.00 93 1015.9
20260507012034 40 0.0 0.0 0.00 0.00 0.00 93 1016.1
20260507011052 41 0.0 0.0 0.00 0.00 0.00 93 1015.9
20260507010029 41 0.0 0.0 0.00 0.00 0.00 92 1015.7
20260507005026 41 268 2.0 2.0 0.00 0.00 0.00 92 1016.0
20260507004023 41 268 3.0 3.0 0.00 0.00 0.00 91 1015.8
20260507003021 41 268 4.0 4.0 0.00 0.00 0.00 91 1015.7
20260507002018 41 268 5.0 6.0 0.00 0.00 0.00 90 1015.8
20260507001015 42 268 5.0 6.0 0.00 0.00 0.00 90 1015.8
20260507000042 42 268 0.0 1.0 0.00 0.00 0.00 89 1015.7
20260506235040 43 268 0.0 1.0 0.00 0.00 0.00 88 1015.7